Kansas City, MO

1:49 AM CST on February 25, 2017 (GMT -0600)
Kansas City International

Weather History for KMCI - August, 2013

Change the Weather History Date:

Friday, August 16, 2013

  Actual Average Record
Temperature  
Mean Temperature 70 °F 78 °F  
Max Temperature 78 °F 88 °F 104 °F (1983)
Min Temperature 62 °F 67 °F 53 °F (1992)
Degree Days  
Heating Degree Days 0 0  
Month to date heating degree days 0 0  
Since 1 June heating degree days 17 9  
Since 1 July heating degree days 0 0  
Cooling Degree Days 5 13  
Month to date cooling degree days 137 209  
Year to date cooling degree days 885 1005  
Since 1 June cooling degree days 780 889  
Growing Degree Days 20 (Base 50)    
Moisture  
Dew Point 54 °F    
Average Humidity 62    
Maximum Humidity 78    
Minimum Humidity 46    
Precipitation  
Precipitation 0.00 in 0.12 in 3.10 in (1990)
Month to date precipitation 2.12 1.93  
Year to date precipitation 22.67 25.44  
Snow  
Snow 0.00 in 0.00 in 0.00 in ()
Month to date snowfall 0.0 0.0  
Since 1 June snowfall 0.0 0.0  
Since 1 July snowfall 0.0 0.0  
Snow Depth 0.00 in    
Sea Level Pressure  
Sea Level Pressure 30.12 in    
Wind  
Wind Speed 7 mph (ESE)    
Max Wind Speed 14 mph    
Max Gust Speed 18 mph    
Visibility 10 miles    
Events      
T = Trace of Precipitation, MM = Missing Value Source: NWS Daily Summary

Daily Weather History Graph

Daily Weather History Graph

Search for Another Location

Airport or City:

Trip Planner

Search our weather history database for the weather conditions in past years. The results will help you decide how hot, cold, wet, or windy it might be!

Date:

Astronomy

Aug. 16, 2013 Rise Set
Actual Time 6:32 AM CDT 8:12 PM CDT
Civil Twilight 6:04 AM CDT 8:41 PM CDT
Nautical Twilight 5:29 AM CDT 9:15 PM CDT
Astronomical Twilight 4:52 AM CDT 9:51 PM CDT
Moon 4:31 PM CDT (8/16) 1:37 AM CDT (8/16)
Length of Visible Light 14h 36m
Length of Day
13h 39m
Waxing Gibbous, 75% of the Moon is Illuminated
Aug 16
Waxing Gibbous
Aug 20
Full
Aug 28
Last Quarter
Sep 5
New
Sep 12
First Quarter

Hourly Weather History & Observations

Time (CDT) Temp. Dew Point Humidity Pressure Visibility Wind Dir Wind Speed Gust Speed Precip Events Conditions
12:53 AM 64.9 °F 55.0 °F 70% 30.09 in 10.0 mi ESE 11.5 mph - N/A   Mostly Cloudy
1:53 AM 63.0 °F 55.0 °F 75% 30.07 in 10.0 mi SE 6.9 mph - N/A   Mostly Cloudy
2:53 AM 64.0 °F 55.0 °F 73% 30.08 in 10.0 mi ESE 6.9 mph - N/A   Scattered Clouds
3:53 AM 64.0 °F 55.0 °F 73% 30.09 in 10.0 mi ESE 9.2 mph - N/A   Mostly Cloudy
4:53 AM 63.0 °F 55.0 °F 75% 30.09 in 10.0 mi ESE 8.1 mph - N/A   Mostly Cloudy
5:53 AM 63.0 °F 54.0 °F 72% 30.10 in 10.0 mi SE 6.9 mph - N/A   Overcast
6:53 AM 63.0 °F 54.0 °F 72% 30.11 in 10.0 mi ESE 6.9 mph - N/A   Mostly Cloudy
7:53 AM 64.0 °F 55.0 °F 73% 30.12 in 10.0 mi ESE 6.9 mph - N/A   Mostly Cloudy
8:53 AM 66.0 °F 55.0 °F 68% 30.15 in 10.0 mi ESE 6.9 mph - N/A   Mostly Cloudy
9:53 AM 69.1 °F 55.9 °F 63% 30.15 in 10.0 mi Variable 5.8 mph - N/A   Mostly Cloudy
10:53 AM 70.0 °F 54.0 °F 57% 30.15 in 10.0 mi ESE 11.5 mph - N/A   Mostly Cloudy
11:53 AM 73.0 °F 55.0 °F 53% 30.16 in 10.0 mi ENE 9.2 mph - N/A   Scattered Clouds
12:53 PM 73.0 °F 55.0 °F 53% 30.15 in 10.0 mi ENE 9.2 mph - N/A   Scattered Clouds
1:53 PM 75.0 °F 54.0 °F 48% 30.13 in 10.0 mi Variable 6.9 mph - N/A   Partly Cloudy
2:53 PM 75.9 °F 55.0 °F 48% 30.12 in 10.0 mi ENE 10.4 mph - N/A   Scattered Clouds
3:53 PM 75.9 °F 55.0 °F 48% 30.11 in 10.0 mi NE 6.9 mph - N/A   Mostly Cloudy
4:53 PM 75.9 °F 54.0 °F 46% 30.12 in 10.0 mi ESE 5.8 mph - N/A   Scattered Clouds
5:53 PM 73.9 °F 54.0 °F 50% 30.13 in 10.0 mi SE 10.4 mph - N/A   Partly Cloudy
6:53 PM 73.0 °F 53.1 °F 49% 30.12 in 10.0 mi ESE 9.2 mph - N/A   Partly Cloudy
7:53 PM 71.1 °F 53.1 °F 53% 30.13 in 10.0 mi SE 6.9 mph - N/A   Partly Cloudy
8:53 PM 66.0 °F 53.1 °F 63% 30.14 in 10.0 mi SE 4.6 mph - N/A   Partly Cloudy
9:53 PM 66.0 °F 53.1 °F 63% 30.15 in 10.0 mi SE 4.6 mph - N/A   Partly Cloudy
10:53 PM 68.0 °F 53.1 °F 59% 30.15 in 10.0 mi East 3.5 mph - N/A   Partly Cloudy
11:53 PM 64.9 °F 52.0 °F 63% 30.16 in 10.0 mi Calm Calm - N/A   Clear